CZ-6A DEB, 61469

Orbit data source: Space-Track

CZ-6A DEB, 61469 is space debris in LEO originally from a launch on Tue, 06 Aug 2024 UTC launched from the Taiyaun Space Center, China (TSC). Debris objects in space refer to the collection of defunct objects orbiting the Earth. Examples of debris include non-operational satellites, rocket bodies, and fragments generated from explosions, collisions, or faulty payload assembly.

Loading next visibility...
Identifier
61469, 2024-140AAB
Orbit
LEO
Country
Flag of CNCN / PRC
Related business
Manufacturer
SAST
Mission
Spacecraft
Bus & Motor
Unknown
Mass
Unknown
Launch date (UTC)
2024-08-06 (2 years ago)
Launch vehicle
Unknown
Launch site
Taiyaun Space Center, China (TSC)
Object type
Payload
Rocket body
Debris
Shape & HBR
Unknown shape, 0.1 m
Radar Cross Section
Medium (>0.1 m² and <1 m²)

Expand to show TLE details & history
Last TLE update: 21 hours ago

TLE from 21 hours ago
0 CZ-6A DEB
1 61469U 24140AAB 26170.96942716  .00008179  00000-0  10071-2 0  9993
2 61469  90.0386 356.0907 0125629 140.0213 221.0343 14.77350301 98058
Epoch: 2026-06-19T23:15Z
TLE epoch observation values (Epoch: 2026-06-19T23:15:58.506Z)
Latitude
-0.00009°
Longitude
98.90615°
Altitude
707.809 km
Speed
7.466 km/s
True Right ascension
23h 44m 21s
True Declination
0° 00' 00"
Sunlit
Object was in daylight at epoch
Visualization orbit readout
Latitude
Unknown
Longitude
Unknown
Altitude
Unknown
Speed
Unknown
Apparent Right ascension
Unknown
Apparent Declination
Unknown
Sunlit
N/A
Visualization observer readout
Local Sidereal Time
07:20:33
Azimuth
Unknown
Elevation
Unknown
Doppler factor
Unknown
Orbital elements
Apogee altitude
722.666 km
Perigee altitude
546.466 km
Semi-major axis
7,012.703 km
Eccentricity
0.01256
Inclination
90.0386°
RAAN
356.0907°
Arg. of periapsis
140.0213°
True anomaly
220.1003°
Mean anomaly
221.0343°
Eccentric anomaly
220.56619°
Mean motion
3.69586 °/min
Orbital period
97.41 mins
BSTAR
0.0010071
Loading maneuver chart data...
Computing Atmospheric mass density...
Loading historical data...
Loading historical data...
Loading historical data...
Loading historical data...
Loading historical data...
Loading historical data...
Loading historical data...

Documentation

Showing up to 5 results
|